Regional Weather Roundup
Issued by NWS

Home | Current Version | Previous Version | Graphics & Text | Print | Product List | Glossary On
Versions: 1 2 3 4 5 6 7 8 9 10 11 12 13 14 15 16 17 18 19 20 21 22 23 24 25 26 27 28 29 30 31 32 33 34 35 36 37 38 39 40 41 42 43 44 45 46 47 48 49 50
000
ASUS45 KTFX 290504
RWRMT
MONTANA HOURLY WEATHER ROUNDUP
NATIONAL WEATHER SERVICE GREAT FALLS MT
1104 PM MDT THU AUG 28 2014

NOTE: "FAIR" INDICATES FEW OR NO CLOUDS BELOW 12000 FEET WITH NO
SIGNIFICANT WEATHER AND/OR OBSTRUCTIONS TO VISIBILITY.

* THESE STATIONS ARE NOT UNDER NWS QUALITY CONTROL. THEY DO NOT
   REPORT WEATHER SUCH AS PRECIPITATION OR FOG.

MTZ001>007-043-290600-
WEST OF THE DIVIDE
CITY           SKY/WX    TMP DP  RH WIND       PRES   REMARKS
KALISPELL      CLOUDY    61  52  72 N12       30.00R
MISSOULA       MOCLDY    68  41  38 N6        30.02R
BUTTE          MOCLDY    63  39  41 NW5       30.11S
MULLAN PASS    CLEAR     55  37  51 W6        30.15S
* LINCOLN      N/A       60  41  50 NE2        N/A
* LOOKOUT PASS N/A       59  40  50 N3         N/A
* POLSON       N/A       64  40  41 NW2        N/A
* RONAN APT    MOCLDY    66  43  43 N/A        N/A
* SEELEY LAKE  N/A       56  44  64 NE2        N/A
* THOMP F APT  CLEAR     54  47  77 N3G14      N/A
$$

MTZ008-052>055-290600-
SOUTHWEST MONTANA
CITY           SKY/WX    TMP DP  RH WIND       PRES   REMARKS
BOZEMAN        CLOUDY    70  45  41 S14       30.05R
DILLON         MOCLDY    64  43  47 E6        30.07R
W YELLOWSTONE  CLOUDY    54  48  80 S9        30.25F
* THREE FORKS  MOCLDY    72  55  55 N/A        N/A
* BOULDER HILL N/A       62  30  30 SW2        N/A
* MONIDA PASS  N/A       55  46  72 SE8        N/A
* RAYNOLDS PAS N/A       54  36  51 SE8G13     N/A
* WHITEHALL    N/A       70  45  41 SE3G8      N/A
* WISE RIVER   N/A       59  33  38 W4G11      N/A
$$

MTZ009>010-012-014-046-048-049-054-290600-
EAST SLOPES AND CENTRAL MONTANA
CITY           SKY/WX    TMP DP  RH WIND       PRES   REMARKS
CUT BANK       CLOUDY    52  46  80 NW8       30.12S
GREAT FALLS    CLOUDY    55  52  90 N15       30.11R
HELENA         MOCLDY    70  41  35 NW5       30.03R
MALMSTROM AFB  CLOUDY    57  50  78 N14G23    30.12R
* CONRAD       MOCLDY    54  54 100 NW13G18    N/A
* EAST GLACIER N/A       47  46  96 SW4        N/A
* MONARCH      N/A       54  47  77 NW15       N/A
* PENDROY      N/A       50  49  96 VRB22G30    N/A
* ROGERS PASS  N/A       53  48  83 SE4        N/A
* SAINT MARY   N/A       47  46  96 S4G14      N/A
* SWEET GRASS  N/A       49  49 100 NE2        N/A
$$

MTZ011-013-016-021-035-040-045-047-050-051-290600-
NORTH CENTRAL MONTANA
CITY           SKY/WX    TMP DP  RH WIND       PRES   REMARKS
HAVRE          CLOUDY    59  52  78 NE8       30.02R
LEWISTOWN      MOCLDY    63  52  68 W17G26    29.99R
* CHESTER      N/A       55  49  80 NE8G15     N/A
* DENTON       N/A       60  53  78 NW21G31    N/A
* GEYSER       N/A       65  47  52 NW5G12     N/A
* JUDITH GAP   N/A       66  41  40 VRB19G29    N/A
* LOMA         N/A       59  51  75 NW8G15     N/A
$$

MTZ017>020-022>027-061-062-290600-
NORTHEAST MONTANA
CITY           SKY/WX    TMP DP  RH WIND       PRES   REMARKS
GLASGOW        MOCLDY    70  57  64 NW29G40   29.87R
GLENDIVE       CLEAR     64  54  70 CALM      29.84S
JORDAN         PTCLDY    61  57  87 CALM      29.83S
SIDNEY         CLEAR     68  52  57 W10       29.80S
WOLF POINT     CLEAR     70  55  59 VRB3      29.79F
* BEAVER HILL  N/A       73  50  44 N/A        N/A
* CIRCLE       N/A       66  55  68 N/A        N/A
* LINDSAY DVD  N/A       63  50  63 N9         N/A
* NAVAJO       N/A       61  55  81 N9         N/A
$$

MTZ028>042-056>058-290600-
SOUTHCENTRAL AND SOUTHEAST MONTANA
CITY           SKY/WX    TMP DP  RH WIND       PRES   REMARKS
BAKER          CLEAR     63  54  73 CALM      29.87F
BILLINGS       MOCLDY    75  46  36 SW6       29.91R
LIVINGSTON     TSTM      70  45  41 NW8       30.02R
MILES CITY     CLEAR     72  46  40 SE3       29.83F
* LAUREL APT   CLOUDY    70  48  46 W6         N/A
* ROUNDUP APT  MOCLDY    70  48  46 N/A        N/A
* ALZADA       N/A       62  51  67 E4         N/A
* HYSHAM       N/A       70  42  36 SE1        N/A
* LAME DEER    N/A       70  45  41 NE4        N/A
* REED POINT   N/A       64  55  73 SW6G13     N/A
* ROSCOE HILL  N/A       66  38  36 NE4G12     N/A
$$

REGIONAL REPORTS...DAKOTAS
CITY           SKY/WX    TMP DP  RH WIND       PRES   REMARKS
WILLISTON      CLEAR     70  52  53 NW12      29.77S
DICKINSON      CLEAR     63  57  81 S10       29.82F
BEACH          N/A       59  59 100 SW3       29.85F
CROSBY         CLEAR     64  63  97 NW9       29.77R
TIOGA          CLEAR     59  59 100 NW3       29.80S
WATFORD CITY   CLEAR     64  52  65 SW5       29.76F
BISMARCK       MOCLDY    63  63 100 S3        29.83F
GRAND FORKS    CLOUDY    68  64  87 S9        29.83F
FARGO          CLOUDY    66  64  93 SE8       29.85S
BUFFALO SD     CLEAR     64  55  73 SW6       29.82F
RAPID CITY     PTCLDY    61  57  87 CALM      29.93S
$$

REGIONAL REPORTS...WYOMING/IDAHO/WASHINGTON
CITY           SKY/WX    TMP DP  RH WIND       PRES   REMARKS
GILLETTE       CLEAR     57  48  72 S5        29.98S
SHERIDAN       CLEAR     57  46  67 S6        29.95F
CODY           CLOUDY    70  46  42 NW5       30.03R
YELLOWSTONE LA MOCLDY    46  46 100 CALM      30.38S
SALMON         PTCLDY    70  43  38 SW3       30.01R
MULLAN PASS    CLEAR     55  37  51 W6        30.15S
SAND POINT     PTCLDY    61  52  72 CALM      29.97R
SPOKANE        FAIR      72  43  35 SW12      29.95F

$$



USA.gov is the U.S. government's official web portal to all federal, state and local government web resources and services.